• In Germany
  • List of Countries
  • For 7 days
  • Water Temperature
  • Satellite Maps
  • Weather Map
  • Weather Widgets
  • user-avatar
    Login

    Hourly Weather Bad Windsheim

    Today, 25 November, Saturday

    Time Temperature Precipitation Wind Pressure Humidity
    00:00 +9°C° 0.4 mm 3 mps 728 mmHg 92%
    01:00 +9°C° 0.4 mm 3 mps 728 mmHg 92%
    02:00 +9°C° 0.4 mm 3 mps 727 mmHg 92%
    03:00 +9°C° 0.4 mm 3 mps 726 mmHg 93%
    04:00 +9°C° 0.4 mm 3 mps 726 mmHg 93%
    05:00 +8°C° 1.1 mm 3 mps 725 mmHg 94%
    06:00 +8°C° 1.1 mm 3 mps 724 mmHg 95%
    07:00 +8°C° 1.1 mm 2 mps 724 mmHg 95%
    08:00 +8°C° 2 mm 3 mps 724 mmHg 95%
    09:00 +7°C° 2 mm 3 mps 724 mmHg 94%
    10:00 +7°C° 2 mm 3 mps 724 mmHg 94%
    11:00 +7°C° 1 mm 3 mps 724 mmHg 92%
    12:00 +6°C° 1 mm 4 mps 725 mmHg 91%
    13:00 +6°C° 1 mm 4 mps 725 mmHg 89%
    14:00 +6°C° 0.4 mm 4 mps 726 mmHg 88%
    15:00 +5°C° 0.4 mm 4 mps 726 mmHg 87%
    16:00 +5°C° 0.4 mm 4 mps 727 mmHg 86%
    17:00 +4°C° 0.2 mm 3 mps 727 mmHg 87%
    18:00 +4°C° 0.2 mm 3 mps 728 mmHg 89%
    19:00 +3°C° 0.2 mm 3 mps 728 mmHg 90%
    20:00 +3°C° 0.4 mm 4 mps 729 mmHg 89%
    21:00 +2°C° 0.4 mm 5 mps 730 mmHg 88%
    22:00 +1°C° 0.4 mm 6 mps 730 mmHg 86%
    23:00 +1°C° 0.4 mm 5 mps 731 mmHg 85%

    Tomorrow, 26 November, Sunday

    Time Temperature Precipitation Wind Pressure Humidity
    00:00 +1°C° 0.4 mm 5 mps 732 mmHg 84%
    01:00 0°C° 0.4 mm 5 mps 732 mmHg 82%
    02:00 0°C° 0.1 mm 5 mps 733 mmHg 85%
    03:00 0°C° 0.1 mm 4 mps 733 mmHg 88%
    04:00 -1°C° 0.1 mm 4 mps 734 mmHg 90%
    05:00 -1°C° 0 mm 4 mps 734 mmHg 91%
    06:00 -2°C° 0 mm 4 mps 735 mmHg 92%
    07:00 -2°C° 0 mm 4 mps 735 mmHg 93%
    08:00 -2°C° 0 mm 4 mps 736 mmHg 91%
    09:00 -1°C° 0 mm 4 mps 736 mmHg 90%
    10:00 -1°C° 0 mm 4 mps 736 mmHg 88%
    11:00 0°C° 0 mm 4 mps 736 mmHg 86%
    12:00 0°C° 0 mm 5 mps 736 mmHg 84%
    13:00 0°C° 0 mm 5 mps 736 mmHg 82%
    14:00 0°C° 0 mm 4 mps 736 mmHg 82%
    15:00 0°C° 0 mm 4 mps 737 mmHg 82%
    16:00 0°C° 0 mm 4 mps 737 mmHg 82%
    17:00 0°C° 0 mm 4 mps 737 mmHg 83%
    18:00 0°C° 0 mm 4 mps 737 mmHg 84%
    19:00 -1°C° 0 mm 4 mps 738 mmHg 85%
    20:00 -1°C° 0 mm 4 mps 738 mmHg 86%
    21:00 0°C° 0 mm 3 mps 738 mmHg 88%
    22:00 -1°C° 0 mm 3 mps 738 mmHg 89%
    23:00 -2°C° 0 mm 4 mps 738 mmHg 90%

    Day after tomorrow, 27 November, Monday

    Time Temperature Precipitation Wind Pressure Humidity
    00:00 -2°C° 0 mm 4 mps 738 mmHg 91%
    01:00 -2°C° 0 mm 4 mps 739 mmHg 92%
    02:00 -2°C° 0 mm 4 mps 738 mmHg 92%
    03:00 -2°C° 0 mm 4 mps 738 mmHg 93%
    04:00 -2°C° 0 mm 4 mps 738 mmHg 93%
    05:00 -2°C° 0 mm 4 mps 738 mmHg 93%
    06:00 -2°C° 0 mm 4 mps 739 mmHg 92%
    07:00 -2°C° 0 mm 4 mps 739 mmHg 92%
    08:00 -2°C° 0 mm 4 mps 739 mmHg 90%
    09:00 -1°C° 0 mm 4 mps 739 mmHg 88%
    10:00 -1°C° 0 mm 5 mps 739 mmHg 86%
    11:00 0°C° 0 mm 5 mps 738 mmHg 83%
    12:00 0°C° 0 mm 5 mps 738 mmHg 80%
    13:00 +1°C° 0 mm 5 mps 738 mmHg 77%
    14:00 0°C° 0 mm 4 mps 737 mmHg 79%
    15:00 0°C° 0 mm 4 mps 737 mmHg 82%
    16:00 0°C° 0 mm 3 mps 736 mmHg 84%
    17:00 0°C° 0 mm 3 mps 736 mmHg 84%
    18:00 -1°C° 0 mm 4 mps 735 mmHg 84%
    19:00 -2°C° 0 mm 4 mps 735 mmHg 85%
    20:00 -1°C° 0.1 mm 4 mps 735 mmHg 83%
    21:00 -1°C° 0.1 mm 4 mps 734 mmHg 81%
    22:00 -1°C° 0.1 mm 5 mps 734 mmHg 79%
    23:00 0°C° 0.3 mm 5 mps 733 mmHg 80%

    28 November, Tuesday

    Time Temperature Precipitation Wind Pressure Humidity
    00:00 0°C° 0.3 mm 5 mps 733 mmHg 80%
    01:00 0°C° 0.3 mm 5 mps 732 mmHg 81%
    02:00 0°C° 0.2 mm 5 mps 731 mmHg 82%
    03:00 0°C° 0.2 mm 5 mps 731 mmHg 83%
    04:00 0°C° 0.2 mm 5 mps 730 mmHg 84%
    05:00 0°C° 0.2 mm 5 mps 730 mmHg 85%
    06:00 0°C° 0.2 mm 4 mps 729 mmHg 85%
    07:00 0°C° 0.2 mm 4 mps 729 mmHg 85%
    08:00 +1°C° 0.2 mm 4 mps 728 mmHg 84%
    09:00 +1°C° 0.2 mm 4 mps 728 mmHg 82%
    10:00 +1°C° 0.2 mm 4 mps 727 mmHg 81%
    11:00 +3°C° 0.4 mm 4 mps 726 mmHg 80%
    12:00 +3°C° 0.4 mm 4 mps 725 mmHg 79%
    13:00 +3°C° 0.4 mm 4 mps 725 mmHg 77%
    14:00 +3°C° 0.4 mm 4 mps 724 mmHg 78%
    15:00 +3°C° 0.4 mm 4 mps 724 mmHg 79%
    16:00 +3°C° 0.4 mm 4 mps 723 mmHg 80%
    17:00 +3°C° 0.7 mm 4 mps 723 mmHg 80%
    18:00 +3°C° 0.7 mm 4 mps 723 mmHg 80%
    19:00 +2°C° 0.7 mm 5 mps 722 mmHg 81%
    20:00 +2°C° 0.4 mm 5 mps 722 mmHg 82%
    21:00 +1°C° 0.4 mm 5 mps 722 mmHg 83%
    22:00 +1°C° 0.4 mm 4 mps 722 mmHg 84%
    23:00 +1°C° 0.2 mm 4 mps 721 mmHg 84%

    29 November, Wednesday

    Time Temperature Precipitation Wind Pressure Humidity
    00:00 +1°C° 0.2 mm 4 mps 721 mmHg 85%
    01:00 +1°C° 0.2 mm 4 mps 721 mmHg 86%
    02:00 +1°C° 0.1 mm 4 mps 720 mmHg 86%
    03:00 +1°C° 0.1 mm 5 mps 720 mmHg 87%
    04:00 +1°C° 0.1 mm 5 mps 720 mmHg 87%
    05:00 +1°C° 0 mm 5 mps 720 mmHg 87%
    06:00 0°C° 0 mm 5 mps 720 mmHg 88%
    07:00 0°C° 0 mm 5 mps 720 mmHg 88%
    08:00 0°C° 0 mm 5 mps 720 mmHg 87%
    09:00 +1°C° 0 mm 5 mps 721 mmHg 86%
    10:00 +1°C° 0 mm 5 mps 721 mmHg 86%
    11:00 +1°C° 0 mm 5 mps 721 mmHg 85%
    12:00 +3°C° 0 mm 4 mps 721 mmHg 85%
    13:00 +3°C° 0 mm 4 mps 721 mmHg 85%
    14:00 +3°C° 0 mm 3 mps 721 mmHg 86%
    15:00 +2°C° 0 mm 3 mps 721 mmHg 88%
    16:00 +3°C° 0 mm 2 mps 721 mmHg 89%
    17:00 +3°C° 0 mm 2 mps 722 mmHg 90%
    18:00 +2°C° 0 mm 2 mps 722 mmHg 92%
    19:00 +3°C° 0 mm 1 mps 722 mmHg 93%
    20:00 +2°C° 0 mm 1 mps 722 mmHg 94%
    21:00 +2°C° 0 mm 1 mps 722 mmHg 94%
    22:00 +2°C° 0 mm 1 mps 722 mmHg 95%
    23:00 +2°C° 0 mm 1 mps 722 mmHg 95%

    30 November, Thursday

    Time Temperature Precipitation Wind Pressure Humidity
    00:00 +1°C° 0 mm 1 mps 722 mmHg 96%
    01:00 +1°C° 0 mm 1 mps 722 mmHg 96%
    02:00 +1°C° 0.1 mm 1 mps 722 mmHg 96%
    03:00 +1°C° 0.1 mm 1 mps 722 mmHg 96%
    04:00 -1°C° 0.1 mm 2 mps 722 mmHg 96%
    05:00 -1°C° 0.1 mm 2 mps 723 mmHg 96%
    06:00 -1°C° 0.1 mm 2 mps 723 mmHg 95%
    07:00 -1°C° 0.1 mm 3 mps 723 mmHg 95%
    08:00 -1°C° 0 mm 3 mps 723 mmHg 93%
    09:00 -1°C° 0 mm 3 mps 723 mmHg 91%
    10:00 0°C° 0 mm 3 mps 724 mmHg 89%
    11:00 -1°C° 0 mm 4 mps 724 mmHg 86%
    12:00 0°C° 0 mm 4 mps 723 mmHg 83%
    13:00 0°C° 0 mm 5 mps 723 mmHg 79%
    14:00 0°C° 0 mm 4 mps 723 mmHg 81%
    15:00 0°C° 0 mm 4 mps 723 mmHg 83%
    16:00 0°C° 0 mm 4 mps 723 mmHg 84%
    17:00 -1°C° 0.2 mm 4 mps 724 mmHg 85%
    18:00 -1°C° 0.2 mm 5 mps 724 mmHg 87%
    19:00 -1°C° 0.2 mm 5 mps 724 mmHg 88%
    20:00 -2°C° 0.1 mm 5 mps 724 mmHg 88%
    21:00 -2°C° 0.1 mm 4 mps 724 mmHg 89%
    22:00 -3°C° 0.1 mm 4 mps 724 mmHg 89%
    23:00 -3°C° 0.1 mm 4 mps 724 mmHg 88%
    Show more